Content
SEND FEEDBACK

Daily
Averages
Monthly
Summary
Canada

MONTREAL, QUEBEC


Home > North America > Canada > Quebec
Elevation: 118 feet     Latitude: 45 28N     Longitude: 073 45W

WEATHER
 
SELECT A DAY
Number of Records: 201,513;   Date Range: 1/1/95 - 10/23/14
 
SHARE

PRINT THIS DATA

[ ← Previous Day ]
WEATHER ALMANAC - FEBRUARY 9, 2013
[ Next Day → ]
[ °C ]   °F
Weather ElementAverageHighLow
Temperature12 °F19.4 °F (3:00 pm)3.2 °F (11:00 pm)
Dewpoint-0.5 °F6 °F (1:00 am)-4 °F (11:00 am)
Humidity56.6 %79 % (1:00 am)27 % (1:00 pm)
Barometer30.29 in30.40 in (10:00 pm)30.16 in (1:00 am)
Wind Speed11.4 mph24.2 mph (1:00 am)
Wind Gust35.7 mph (1:00 am)
Weather ElementAverage
Visibility17.5 mi
Wind DirectionS (180 °)

Weather ElementTotal
Precipitation---
Heating Degree Days53.7 (Base 65)
Averaged from 27 records on February 9, 2013
WEATHER CONDITIONS BREAKOUT
WIND DIRECTION BREAKOUT
WEATHER BY HOUR - FEBRUARY 9, 2013
[ °C ]   °F
Local TimeTemperatureDewpointHumidityBarometerVisibilityWind DirectionWind SpeedGust SpeedPrecipitationEventsConditions
1:00 AM11.0 °F6.0 °F69 %30.16 in4.0 miNNE (20°)24.2 mphSnowLight Snow
1:00 AM10.4 °F5.0 °F79 %30.16 in4.0 miNNE (20°)20.7 mph35.7 mphSnowLight Snow
2:00 AM10.4 °F5.0 °F79 %30.17 in5.0 miNNE (20°)24.2 mph32.2 mphSnowLight Snow
3:00 AM10.4 °F5.0 °F79 %30.18 in6.0 miNNE (30°)20.7 mph33.4 mphSnowLight Snow
4:00 AM10.4 °F5.0 °F79 %30.20 in6.0 miNNE (20°)21.9 mphSnowLight Snow
5:00 AM10.4 °F1.4 °F67 %30.21 in15.0 miNNE (20°)23.0 mphSnowLow Drifting Snow
6:00 AM10.4 °F1.4 °F67 %30.24 in15.0 miNNE (20°)16.1 mph24.2 mphSnowLow Drifting Snow
7:00 AM11.0 °F0.0 °F47 %30.26 in15.0 miNorth (10°)13.8 mphPartly Cloudy
7:00 AM10.4 °F-0.4 °F62 %30.26 in15.0 miNorth (10°)12.7 mph18.4 mphSnowLow Drifting Snow
8:00 AM10.4 °F-0.4 °F62 %30.27 in15.0 miNorth (350°)10.4 mphOvercast
9:00 AM10.4 °F-0.4 °F62 %30.29 in15.0 miNorth (350°)10.4 mphMostly Cloudy
10:00 AM10.4 °F-2.2 °F57 %30.30 in15.0 miNorth (360°)12.7 mph18.4 mphMostly Cloudy
11:00 AM12.2 °F-4.0 °F48 %30.32 in30.0 miNorth (360°)11.5 mphMostly Cloudy
12:00 PM14.0 °F-2.2 °F49 %30.31 in30.0 miNNW (340°)9.2 mphMostly Cloudy
1:00 PM15.0 °F-4.0 °F27 %30.31 in28.0 miNorth10.4 mphScattered Clouds
1:00 PM15.8 °F-4.0 °F41 %30.31 in30.0 miNorth (360°)10.4 mphMostly Cloudy
2:00 PM17.6 °F-2.2 °F42 %30.30 in30.0 miNW (320°)6.9 mphPartly Cloudy
3:00 PM19.4 °F-2.2 °F39 %30.30 in30.0 miWest (280°)9.2 mphPartly Cloudy
4:00 PM19.4 °F-0.4 °F42 %30.31 in30.0 miWNW (290°)5.8 mphPartly Cloudy
5:00 PM17.6 °F1.4 °F49 %30.32 in30.0 miSW (220°)6.9 mphPartly Cloudy
6:00 PM14.0 °F-2.2 °F49 %30.34 in15.0 miWSW (240°)6.9 mphPartly Cloudy
7:00 PM13.0 °F-3.0 °F33 %30.35 in15.0 miWSW (240°)5.8 mph
7:00 PM14.0 °F-2.2 °F49 %30.35 in15.0 miWSW (240°)4.6 mphClear
8:00 PM10.4 °F-2.2 °F57 %30.37 in15.0 miWSW (250°)4.6 mphClear
9:00 PM8.6 °F-4.0 °F57 %30.39 in15.0 miCalmClear
10:00 PM5.0 °F-4.0 °F66 %30.40 in15.0 miWSW (240°)2.3 mphClear
11:00 PM3.2 °F-4.0 °F72 %30.40 in15.0 miWSW (250°)3.5 mphClear
Hourly data recorded from CYUL, located miles away from Montreal, Quebec







STORIES FROM OUR PARTNERS